"2019.01.30","16:26:53",748.52,20.00,46,17.40,18.10,18.56,18.69
"2019.01.30","16:27:03",748.51,21.00,45,17.70,18.20,18.75,18.94
"2019.01.30","16:27:14",748.46,21.40,45,17.90,18.40,18.94,19.06
"2019.01.30","16:27:24",748.52,21.80,45,18.20,18.50,19.00,19.25
"2019.01.30","16:27:35",748.42,22.00,45,18.40,18.60,19.25,19.37
"2019.01.30","16:27:45",748.40,22.30,45,18.70,18.70,19.31,19.37
"2019.01.30","16:27:55",748.47,22.20,45,18.90,18.80,19.50,19.44
"2019.01.30","16:28:06",748.47,22.20,45,19.10,18.90,19.56,19.75
"2019.01.30","16:28:16",748.43,22.10,45,19.20,19.00,19.69,19.81
"2019.01.30","16:28:27",748.45,22.20,45,19.40,19.10,19.81,19.94
"2019.01.30","16:28:37",748.43,22.30,45,19.50,19.20,20.00,19.87
"2019.01.30","16:28:47",748.41,22.30,44,19.70,19.20,20.00,20.12
"2019.01.30","16:28:58",748.39,22.40,44,19.90,19.30,20.19,20.19
"2019.01.30","16:29:08",748.41,22.40,44,20.00,19.40,20.31,20.37
"2019.01.30","16:29:19",748.43,22.40,44,20.10,19.50,20.31,20.25
"2019.01.30","16:29:29",748.42,22.40,44,20.20,19.60,20.44,20.50
"2019.01.30","16:29:40",748.41,22.30,44,20.30,19.60,20.37,20.56
"2019.01.30","16:29:50",748.42,22.30,44,20.40,19.70,20.56,20.44
"2019.01.30","16:30:00",748.42,22.30,44,20.50,19.80,20.56,20.62
"2019.01.30","16:30:11",748.42,22.20,44,20.60,19.80,20.69,20.69
"2019.01.30","16:30:21",748.44,22.20,44,20.70,19.90,20.81,20.62
"2019.01.30","16:30:32",748.41,22.20,44,20.80,20.00,20.87,20.75
"2019.01.30","16:30:42",748.36,22.10,44,20.80,20.00,20.87,20.75
"2019.01.30","16:30:52",748.39,22.10,43,20.90,20.10,20.81,20.94
"2019.01.30","16:31:03",748.41,21.90,43,20.90,20.10,20.94,20.94
"2019.01.30","16:31:13",748.42,21.80,43,21.00,20.20,21.12,21.00
"2019.01.30","16:31:24",748.36,21.90,42,21.10,20.20,20.94,21.06
"2019.01.30","16:31:34",748.37,21.80,42,21.10,20.30,21.00,21.06
"2019.01.30","16:31:45",748.43,21.80,42,21.10,20.30,21.06,21.19
"2019.01.30","16:31:55",748.51,21.90,42,21.20,20.40,21.25,21.12
"2019.01.30","16:32:05",748.42,21.90,42,21.20,20.40,21.25,21.25
"2019.01.30","16:32:16",748.44,21.80,41,21.30,20.50,21.25,21.25
"2019.01.30","16:32:26",748.50,21.80,41,21.30,20.50,21.37,21.19
"2019.01.30","16:32:37",748.42,21.90,41,21.30,20.60,21.25,21.44
"2019.01.30","16:32:47",748.38,21.70,40,21.40,20.60,21.50,21.37
"2019.01.30","16:32:57",748.42,21.70,40,21.40,20.60,21.31,21.50
"2019.01.30","16:33:08",748.44,21.70,40,21.40,20.70,21.37,21.44
"2019.01.30","16:33:18",748.42,21.70,40,21.50,20.70,21.37,21.37
"2019.01.30","16:33:29",748.44,21.60,39,21.50,20.70,21.56,21.56
"2019.01.30","16:33:39",748.44,21.60,39,21.50,20.80,21.50,21.56
"2019.01.30","16:33:50",748.38,21.60,39,21.50,20.80,21.62,21.56
"2019.01.30","16:34:00",748.44,21.60,39,21.50,20.80,21.69,21.50
"2019.01.30","16:34:10",748.40,21.70,39,21.60,20.90,21.69,21.69
"2019.01.30","16:34:21",748.37,21.70,39,21.60,20.90,21.56,21.50
"2019.01.30","16:34:31",748.40,21.70,39,21.60,20.90,21.56,21.75
"2019.01.30","16:34:42",748.42,21.70,39,21.60,21.00,21.62,21.62
"2019.01.30","16:34:52",748.42,21.80,39,21.70,21.00,21.69,21.81
"2019.01.30","16:35:02",748.39,21.70,38,21.70,21.00,21.75,21.62
"2019.01.30","16:35:13",748.42,21.70,38,21.70,21.00,21.69,21.75
"2019.01.30","16:35:23",748.42,21.80,38,21.70,21.10,21.69,21.75
"2019.01.30","16:35:34",748.42,21.70,38,21.80,21.10,21.75,21.75
"2019.01.30","16:35:44",748.45,21.80,38,21.80,21.10,21.75,21.69
"2019.01.30","16:35:54",748.45,21.70,38,21.80,21.20,21.81,21.87
"2019.01.30","16:36:05",748.42,21.80,38,21.80,21.20,21.81,21.81
"2019.01.30","16:36:15",748.42,21.70,38,21.80,21.20,21.81,21.81
"2019.01.30","16:36:26",748.47,21.80,38,21.80,21.20,21.81,21.94
"2019.01.30","16:36:36",748.39,21.80,38,21.80,21.30,22.00,21.87
"2019.01.30","16:36:47",748.42,21.70,38,21.90,21.30,22.00,22.00
"2019.01.30","16:36:57",748.42,21.70,37,21.90,21.30,22.06,21.87
"2019.01.30","16:37:07",748.44,21.60,37,21.90,21.30,21.94,21.94
"2019.01.30","16:37:18",748.39,21.70,37,21.90,21.40,21.94,22.00
"2019.01.30","16:37:28",748.42,21.70,37,21.90,21.40,22.12,22.00
"2019.01.30","16:37:39",748.34,21.70,37,21.90,21.40,21.94,22.06
"2019.01.30","16:37:49",748.40,21.60,37,21.90,21.40,22.12,22.00
"2019.01.30","16:37:59",748.42,21.60,37,21.90,21.40,22.12,22.06
"2019.01.30","16:38:10",748.40,21.70,37,21.90,21.50,22.12,22.12
"2019.01.30","16:38:20",748.45,21.60,37,22.00,21.50,22.19,22.00
"2019.01.30","16:38:31",748.39,21.60,37,22.00,21.50,22.19,22.12
"2019.01.30","16:38:41",748.44,21.50,37,22.00,21.50,22.19,22.19
"2019.01.30","16:38:52",748.39,21.30,36,22.00,21.50,22.06,22.19
"2019.01.30","16:39:02",748.36,21.20,36,22.00,21.50,22.19,22.00
"2019.01.30","16:39:12",748.42,21.20,36,22.00,21.60,22.25,22.19
"2019.01.30","16:39:23",748.42,21.20,36,22.00,21.60,22.25,22.00
"2019.01.30","16:39:33",748.42,21.20,36,22.00,21.60,22.12,22.19
"2019.01.30","16:39:44",748.46,21.20,36,22.10,21.60,22.25,22.06
"2019.01.30","16:39:54",748.42,21.10,36,22.10,21.60,22.31,22.19
"2019.01.30","16:40:04",748.38,21.10,36,22.10,21.70,22.19,22.06
"2019.01.30","16:40:15",748.39,21.10,36,22.10,21.70,22.31,22.25
"2019.01.30","16:40:25",748.36,21.00,36,22.10,21.70,22.12,22.06
"2019.01.30","16:40:36",748.42,21.10,36,22.10,21.70,22.31,22.25
"2019.01.30","16:40:46",748.39,21.00,36,22.10,21.70,22.37,22.19
"2019.01.30","16:40:57",748.36,21.00,36,22.10,21.70,22.37,22.12
"2019.01.30","16:41:07",748.38,21.00,36,22.10,21.70,22.37,22.19
"2019.01.30","16:41:17",748.42,20.90,36,22.10,21.70,22.37,22.25
"2019.01.30","16:41:28",748.44,20.90,36,22.10,21.80,22.25,22.25
"2019.01.30","16:41:38",748.40,21.10,36,22.10,21.80,22.25,22.44
"2019.01.30","16:41:49",748.40,21.10,36,22.10,21.80,22.44,22.19
"2019.01.30","16:41:59",748.40,21.10,35,22.10,21.80,22.31,22.19
"2019.01.30","16:42:09",748.36,21.10,35,22.10,21.80,22.25,22.31
"2019.01.30","16:42:20",748.34,21.10,35,22.10,21.80,22.31,22.37
"2019.01.30","16:42:30",748.42,21.10,35,22.20,21.80,22.25,22.31
"2019.01.30","16:42:41",748.40,21.20,35,22.20,21.90,22.50,22.44
"2019.01.30","16:42:51",748.39,21.20,35,22.20,21.90,22.31,22.44
"2019.01.30","16:43:02",748.42,21.30,35,22.20,21.80,22.50,22.37
"2019.01.30","16:43:12",748.39,21.20,35,22.20,21.90,22.31,22.31
"2019.01.30","16:43:22",748.34,21.20,35,22.20,21.90,22.50,22.31
"2019.01.30","16:43:33",748.36,21.20,34,22.20,21.90,22.50,22.50
"2019.01.30","16:43:43",748.47,21.20,35,22.20,21.90,22.56,22.37
"2019.01.30","16:43:54",748.39,21.20,34,22.20,21.90,22.50,22.31
"2019.01.30","16:44:04",748.39,21.20,34,22.20,22.00,22.56,22.50
"2019.01.30","16:44:14",748.38,21.20,34,22.20,22.00,22.50,22.44
"2019.01.30","16:44:25",748.39,21.20,34,22.20,22.00,22.50,22.56
"2019.01.30","16:44:35",748.36,21.30,34,22.20,22.00,22.56,22.56
"2019.01.30","16:44:46",748.36,21.20,34,22.20,22.00,22.50,22.44
"2019.01.30","16:44:56",748.40,21.20,34,22.20,22.00,22.37,22.62
"2019.01.30","16:45:07",748.36,21.20,34,22.20,22.00,22.56,22.44
"2019.01.30","16:45:17",748.34,21.20,33,22.20,22.10,22.62,22.50
"2019.01.30","16:45:27",748.33,21.30,33,22.20,22.10,22.56,22.56
"2019.01.30","16:45:38",748.33,21.30,33,22.20,22.10,22.56,22.37
"2019.01.30","16:45:48",748.40,21.30,33,22.30,22.10,22.50,22.56
"2019.01.30","16:45:59",748.38,21.30,33,22.30,22.10,22.62,22.44
"2019.01.30","16:46:09",748.45,21.30,33,22.30,22.10,22.62,22.62
"2019.01.30","16:46:19",748.38,21.30,33,22.30,22.10,22.62,22.56
"2019.01.30","16:46:30",748.36,21.30,33,22.30,22.10,22.69,22.56
"2019.01.30","16:46:40",748.34,21.30,33,22.30,22.10,22.69,22.62
"2019.01.30","16:46:51",748.36,21.20,33,22.30,22.10,22.69,22.69
"2019.01.30","16:47:01",748.38,21.30,33,22.30,22.10,22.75,22.50
"2019.01.30","16:47:11",748.34,21.20,33,22.30,22.10,22.75,22.62
"2019.01.30","16:47:22",748.34,21.20,33,22.30,22.10,22.75,22.69
"2019.01.30","16:47:32",748.34,21.20,33,22.30,22.10,22.75,22.69
"2019.01.30","16:47:43",748.32,21.20,33,22.30,22.20,22.69,22.62
"2019.01.30","16:47:53",748.40,21.20,33,22.30,22.20,22.69,22.69
"2019.01.30","16:48:04",748.33,21.20,33,22.30,22.20,22.75,22.69
"2019.01.30","16:48:14",748.33,21.20,33,22.30,22.20,22.62,22.75
"2019.01.30","16:48:24",748.39,21.10,33,22.30,22.20,22.75,22.56
"2019.01.30","16:48:35",748.32,21.20,33,22.40,22.20,22.75,22.69
"2019.01.30","16:48:45",748.30,21.20,33,22.30,22.20,22.75,22.62
"2019.01.30","16:48:56",748.32,21.20,33,22.40,22.20,22.81,22.75
"2019.01.30","16:49:06",748.29,21.20,79,22.40,22.20,22.75,22.62
"2019.01.30","16:49:16",748.26,21.20,33,22.40,22.30,22.62,22.75
"2019.01.30","16:49:36",748.33,21.30,70,22.50,22.30,22.87,22.69
"2019.01.30","16:49:46",748.36,20.00,75,19.70,21.80,20.06,21.06
"2019.01.30","16:49:57",748.36,18.30,75,17.30,20.80,18.37,18.75
"2019.01.30","16:50:07",748.36,17.20,75,14.90,19.90,16.81,17.31
"2019.01.30","16:50:18",748.33,16.60,75,12.30,18.70,15.56,15.31
"2019.01.30","16:50:28",748.38,16.10,74,10.00,17.70,14.31,14.25
"2019.01.30","16:50:38",748.41,16.10,74,9.50,17.10,13.88,13.88
"2019.01.30","16:50:49",748.30,16.20,74,8.90,16.50,13.13,13.38
"2019.01.30","16:50:59",748.34,16.40,74,8.30,16.00,12.81,12.94
"2019.01.30","16:51:10",748.40,16.70,74,6.70,15.20,11.50,11.63
"2019.01.30","16:51:20",748.42,16.90,73,6.20,14.50,10.88,11.06
"2019.01.30","16:51:30",748.45,17.30,73,6.00,14.00,10.44,10.88
"2019.01.30","16:51:41",748.42,17.80,73,5.20,13.40,9.75,9.94
"2019.01.30","16:51:51",748.39,18.10,73,4.60,12.70,9.19,9.69
"2019.01.30","16:52:02",748.36,18.60,73,4.40,12.30,9.00,9.25
"2019.01.30","16:52:12",748.36,19.00,73,3.00,11.50,7.81,7.69
"2019.01.30","16:52:22",748.35,19.30,73,2.40,10.70,7.38,7.31
"2019.01.30","16:52:33",748.37,19.80,73,2.20,10.40,7.19,7.00
"2019.01.30","16:52:43",748.37,20.40,73,2.00,10.10,6.94,7.06
"2019.01.30","16:52:53",748.34,21.60,73,1.90,9.80,6.69,6.88
"2019.01.30","16:53:04",748.39,22.20,73,2.00,9.50,6.94,6.94
"2019.01.30","16:53:14",748.33,22.70,73,2.30,9.30,6.88,6.94
"2019.01.30","16:53:24",748.35,23.20,73,2.50,9.10,6.75,6.88
"2019.01.30","16:53:35",748.28,23.70,73,2.70,9.00,6.88,7.06
"2019.01.30","16:53:45",748.28,24.10,73,2.70,8.90,6.81,7.00
"2019.01.30","16:53:56",748.30,24.50,73,2.50,8.70,6.88,6.88
"2019.01.30","16:54:06",748.27,24.90,73,2.20,8.40,6.50,6.31
"2019.01.30","16:54:16",748.30,25.20,73,2.20,8.20,6.38,6.38
"2019.01.30","16:54:27",748.39,25.60,73,1.60,7.80,5.63,5.75
"2019.01.30","16:54:37",748.34,25.80,73,1.10,7.40,5.44,5.31
"2019.01.30","16:54:47",748.31,26.10,73,0.80,7.10,5.38,5.00
"2019.01.30","16:54:58",748.33,26.40,73,1.00,6.90,5.13,5.19
"2019.01.30","16:55:08",748.26,26.80,73,0.70,6.70,4.94,4.94
"2019.01.30","16:55:18",748.32,27.10,73,0.80,6.60,4.94,4.75
"2019.01.30","16:55:29",748.38,27.50,73,0.80,6.40,5.00,4.81
"2019.01.30","16:55:39",748.31,27.80,73,0.70,6.20,4.88,4.81
"2019.01.30","16:55:49",748.32,28.20,73,0.70,6.10,4.75,4.69
"2019.01.30","16:56:00",748.24,28.60,72,0.40,5.90,4.56,4.50
"2019.01.30","16:56:10",748.26,28.80,72,0.60,5.70,4.44,4.56
"2019.01.30","16:56:21",748.29,29.20,72,0.80,5.60,4.56,4.50
"2019.01.30","16:56:31",748.39,29.50,72,0.80,5.50,4.56,4.38
"2019.01.30","16:56:41",748.29,29.70,72,0.80,5.40,4.63,4.44
"2019.01.30","16:56:52",748.27,30.00,72,0.70,5.30,4.25,4.06
"2019.01.30","16:57:02",748.29,30.20,72,0.80,5.10,3.75,4.06
"2019.01.30","16:57:12",748.31,30.50,71,0.90,4.90,3.63,3.88
"2019.01.30","16:57:23",748.39,30.80,71,0.70,4.80,3.63,3.69
"2019.01.30","16:57:33",748.36,31.10,71,0.40,4.70,3.56,3.75
"2019.01.30","16:57:43",748.33,31.30,71,0.50,4.60,3.19,3.75
"2019.01.30","16:57:54",748.36,31.70,71,0.60,4.50,3.44,3.56
"2019.01.30","16:58:04",748.28,32.00,71,0.60,4.50,3.44,3.69
"2019.01.30","16:58:15",748.31,32.20,70,0.50,4.40,3.44,3.50
"2019.01.30","16:58:25",748.36,32.50,70,0.50,4.30,3.25,3.50
"2019.01.30","16:58:35",748.33,32.80,70,0.40,4.30,3.31,3.25
"2019.01.30","16:58:46",748.35,33.00,70,0.30,4.10,3.31,3.25
"2019.01.30","16:58:56",748.36,33.20,70,0.20,4.00,2.94,3.19
"2019.01.30","16:59:06",748.33,33.40,69,0.00,3.90,2.94,3.06
"2019.01.30","16:59:17",748.28,33.70,69,-0.20,3.70,2.63,2.75
"2019.01.30","16:59:27",748.35,33.90,69,-0.50,3.50,2.38,2.44
"2019.01.30","16:59:37",748.35,34.10,69,-0.60,3.30,2.31,2.25
"2019.01.30","16:59:48",748.40,34.40,69,-0.60,3.20,2.25,2.31
"2019.01.30","16:59:58",748.33,34.60,69,-0.50,3.20,2.25,2.31
"2019.01.30","17:00:09",748.34,34.90,69,-0.60,3.00,2.00,2.19
"2019.01.30","17:00:19",748.36,35.20,69,-0.60,2.90,2.06,2.25
"2019.01.30","17:00:29",748.37,35.60,69,-0.50,2.90,1.94,2.25
"2019.01.30","17:00:40",748.37,35.80,69,-0.50,2.80,1.63,2.00
"2019.01.30","17:00:50",748.30,36.00,69,-0.50,2.60,1.44,1.81
"2019.01.30","17:01:00",748.34,36.30,69,-0.60,2.50,1.12,1.50
"2019.01.30","17:01:11",748.30,36.70,69,-0.50,2.40,1.44,1.63
"2019.01.30","17:01:21",748.32,37.00,69,-0.40,2.40,1.31,1.69
"2019.01.30","17:01:32",748.30,37.30,68,-0.40,2.30,1.19,1.56
"2019.01.30","17:01:42",748.40,37.60,68,-0.40,2.30,1.19,1.63
"2019.01.30","17:01:52",748.33,37.90,68,-0.40,2.30,1.44,1.44
"2019.01.30","17:02:03",748.21,38.00,68,-0.50,2.20,1.19,1.50
"2019.01.30","17:02:13",748.35,38.30,67,-0.60,2.10,1.19,1.12
"2019.01.30","17:02:23",748.35,38.40,67,-0.60,2.10,1.12,1.31
"2019.01.30","17:02:34",748.30,38.60,67,-0.50,2.10,1.06,1.31
"2019.01.30","17:02:44",748.30,38.80,66,-0.50,2.00,1.19,1.25
"2019.01.30","17:02:55",748.39,39.00,66,-0.60,2.00,1.06,1.25
"2019.01.30","17:03:05",748.30,39.20,66,-0.70,2.00,1.00,1.25
"2019.01.30","17:03:15",748.38,39.20,65,-0.60,1.90,1.12,1.12
"2019.01.30","17:03:26",748.30,39.50,65,-0.60,1.90,1.00,1.12
"2019.01.30","17:03:36",748.35,39.50,65,-0.70,1.80,0.88,1.25
"2019.01.30","17:03:46",748.27,39.60,64,-0.60,1.70,0.81,1.06
"2019.01.30","17:03:57",748.38,39.80,64,-0.70,1.60,0.69,0.94
"2019.01.30","17:04:07",748.33,39.90,64,-0.70,1.50,0.63,0.88
"2019.01.30","17:04:18",748.42,40.10,63,-0.70,1.50,0.56,0.81
"2019.01.30","17:04:28",748.35,40.40,63,-0.70,1.60,0.56,0.88
"2019.01.30","17:04:38",748.27,40.50,63,-0.60,1.50,0.56,0.81
"2019.01.30","17:04:49",748.35,40.70,63,-0.70,1.40,0.37,0.63
"2019.01.30","17:04:59",748.30,40.80,63,-0.70,1.30,0.19,0.50
"2019.01.30","17:05:09",748.34,40.90,63,-0.90,1.20,0.19,0.50
"2019.01.30","17:05:20",748.36,41.10,62,-1.10,1.10,0.25,0.25
"2019.01.30","17:05:30",748.34,41.20,62,-1.10,1.10,0.25,0.19
"2019.01.30","17:05:41",748.28,41.50,62,-1.20,1.10,0.06,0.31
"2019.01.30","17:05:51",748.29,41.60,62,-1.20,1.00,0.12,0.12
"2019.01.30","17:06:01",748.25,41.80,62,-1.20,1.00,0.12,0.25
"2019.01.30","17:06:12",748.34,41.90,62,-1.20,1.00,0.12,0.25
"2019.01.30","17:06:22",748.27,42.10,62,-1.20,0.90,0.12,0.25
"2019.01.30","17:06:32",748.22,42.20,62,-1.30,0.90,0.00,0.25
"2019.01.30","17:06:43",748.22,42.30,62,-1.40,0.90,-0.25,0.12
"2019.01.30","17:06:53",748.25,42.50,62,-1.50,0.80,-0.31,-0.06
"2019.01.30","17:07:04",748.23,42.60,61,-1.60,0.70,-0.12,-0.06
"2019.01.30","17:07:14",748.33,42.70,61,-1.60,0.60,-0.12,-0.06
"2019.01.30","17:07:24",748.27,42.90,61,-1.50,0.60,0.06,-0.19
"2019.01.30","17:07:35",748.25,43.10,61,-1.50,0.60,0.19,0.06
"2019.01.30","17:07:45",748.27,43.20,60,-1.40,0.60,0.19,0.12
"2019.01.30","17:07:56",748.22,43.40,60,-1.30,0.60,0.31,0.00
"2019.01.30","17:08:06",748.29,43.60,60,-1.20,0.60,0.37,0.12
"2019.01.30","17:08:16",748.32,43.70,60,-1.20,0.60,0.44,0.12
"2019.01.30","17:08:27",748.24,43.80,59,-1.20,0.60,0.31,0.12
"2019.01.30","17:08:37",748.27,43.80,59,-1.20,0.60,0.25,-0.06
"2019.01.30","17:08:47",748.25,43.90,59,-1.20,0.50,0.19,0.00
"2019.01.30","17:08:58",748.27,43.90,58,-1.20,0.50,0.06,0.06
"2019.01.30","17:09:08",748.27,44.10,58,-1.10,0.50,-0.06,0.06
"2019.01.30","17:09:19",748.34,44.20,58,-1.10,0.50,-0.12,-0.19
"2019.01.30","17:09:29",748.30,44.30,58,-1.10,0.50,-0.06,0.00
"2019.01.30","17:09:39",748.33,44.30,57,-1.10,0.50,0.00,0.06
"2019.01.30","17:09:50",748.27,44.40,57,-1.10,0.50,0.06,0.12
"2019.01.30","17:10:00",748.32,44.50,57,-1.20,0.50,0.06,0.00
"2019.01.30","17:10:10",748.28,44.50,57,-1.20,0.40,-0.12,0.06
"2019.01.30","17:10:21",748.27,44.60,56,-1.20,0.40,-0.19,-0.06
"2019.01.30","17:10:31",748.30,44.70,56,-1.20,0.40,-0.12,-0.06
"2019.01.30","17:10:42",748.34,44.80,56,-1.30,0.40,-0.19,-0.25
"2019.01.30","17:10:52",748.27,44.80,56,-1.30,0.30,-0.37,-0.12
"2019.01.30","17:11:03",748.31,44.90,56,-1.30,0.30,-0.25,-0.12
"2019.01.30","17:11:13",748.32,44.90,55,-1.30,0.30,-0.19,-0.12
"2019.01.30","17:11:23",748.30,44.90,55,-1.20,0.30,-0.12,-0.19
"2019.01.30","17:11:34",748.27,45.10,55,-1.30,0.30,-0.19,-0.25
"2019.01.30","17:11:44",748.29,45.20,55,-1.40,0.30,-0.19,-0.06
"2019.01.30","17:11:55",748.29,45.20,55,-1.30,0.30,0.00,-0.25
"2019.01.30","17:12:05",748.30,45.30,54,-1.30,0.30,0.00,-0.37
"2019.01.30","17:12:15",748.27,45.30,54,-1.30,0.30,-0.25,0.00
"2019.01.30","17:12:26",748.32,45.40,54,-1.20,0.30,-0.06,-0.12
"2019.01.30","17:12:36",748.36,45.50,54,-1.20,0.30,-0.12,-0.19
"2019.01.30","17:12:46",748.27,45.50,54,-1.30,0.30,0.00,-0.12
"2019.01.30","17:12:57",748.22,45.40,54,-1.30,0.20,-0.06,0.00
"2019.01.30","17:13:07",748.27,45.60,53,-1.30,0.30,-0.12,0.00
"2019.01.30","17:13:18",748.25,45.60,53,-1.20,0.20,0.06,0.00
"2019.01.30","17:13:28",748.23,45.70,53,-1.20,0.30,0.12,0.06
"2019.01.30","17:13:38",748.32,45.80,52,-1.10,0.30,0.19,0.00
"2019.01.30","17:13:49",748.25,45.80,52,-1.20,0.30,0.19,-0.06
"2019.01.30","17:13:59",748.33,45.70,52,-1.30,0.30,0.19,0.06
"2019.01.30","17:14:10",748.30,45.70,52,-1.20,0.20,0.12,-0.06
"2019.01.30","17:14:20",748.32,45.70,52,-1.20,0.20,0.06,-0.25
"2019.01.30","17:14:30",748.29,45.80,51,-1.20,0.20,-0.19,-0.06
"2019.01.30","17:14:41",748.32,45.80,51,-1.30,0.20,0.00,-0.06
"2019.01.30","17:14:51",748.35,45.90,51,-1.30,0.10,0.00,-0.19
"2019.01.30","17:15:01",748.33,46.00,50,-1.30,0.10,-0.06,-0.12
"2019.01.30","17:15:12",748.30,45.90,50,-1.20,0.10,-0.12,-0.37
"2019.01.30","17:15:22",748.27,46.00,50,-1.20,0.10,-0.06,-0.12
"2019.01.30","17:15:33",748.30,46.10,49,-1.20,0.10,0.06,0.00
"2019.01.30","17:15:43",748.28,46.20,49,-1.10,0.20,0.12,0.12
"2019.01.30","17:15:53",748.30,46.20,49,-1.10,0.20,0.19,0.00
"2019.01.30","17:16:04",748.34,46.20,49,-1.20,0.20,0.19,-0.06
"2019.01.30","17:16:14",748.33,46.20,48,-1.20,0.20,0.06,0.00
"2019.01.30","17:16:25",748.29,46.30,48,-1.20,0.10,0.19,-0.06
"2019.01.30","17:16:35",748.24,46.40,48,-1.30,0.10,0.19,-0.06
"2019.01.30","17:16:45",748.30,46.40,47,-1.30,0.10,0.12,0.00
"2019.01.30","17:16:56",748.34,46.40,47,-1.20,0.10,0.06,-0.31
"2019.01.30","17:17:06",748.29,46.50,47,-1.30,0.10,0.00,-0.06
"2019.01.30","17:17:16",748.37,46.50,46,-1.20,0.10,0.06,-0.06
"2019.01.30","17:17:27",748.33,46.60,46,-1.30,0.10,-0.06,-0.25
"2019.01.30","17:17:37",748.30,46.50,46,-1.20,0.00,-0.12,-0.12
"2019.01.30","17:17:48",748.32,46.60,45,-1.30,0.00,-0.12,-0.25
"2019.01.30","17:17:58",748.32,46.60,45,-1.30,0.00,-0.12,-0.31
"2019.01.30","17:18:08",748.39,46.60,45,-1.30,0.00,-0.19,-0.31
"2019.01.30","17:18:19",748.39,46.60,44,-1.30,0.00,-0.12,-0.31
"2019.01.30","17:18:29",748.31,46.60,44,-1.40,0.00,-0.31,-0.31
"2019.01.30","17:18:40",748.35,46.70,44,-1.50,0.00,-0.31,-0.37
"2019.01.30","17:18:50",748.32,46.70,43,-1.40,0.00,-0.19,-0.31
"2019.01.30","17:19:01",748.25,46.70,43,-1.40,-0.10,-0.25,-0.37
"2019.01.30","17:19:11",748.36,46.80,43,-1.40,-0.10,-0.25,-0.56
"2019.01.30","17:19:21",748.30,46.90,42,-1.40,-0.10,-0.56,-0.63
"2019.01.30","17:19:32",748.39,46.90,42,-1.40,-0.10,-0.44,-0.44
"2019.01.30","17:19:42",748.32,46.90,42,-1.50,-0.10,-0.44,-0.50
"2019.01.30","17:19:53",748.27,46.90,42,-1.50,-0.20,-0.31,-0.50
"2019.01.30","17:20:03",748.33,47.00,41,-1.50,-0.20,-0.31,-0.44
"2019.01.30","17:20:13",748.35,46.90,41,-1.40,-0.20,-0.44,-0.44
"2019.01.30","17:20:24",748.33,47.10,41,-1.40,-0.20,-0.37,-0.63
"2019.01.30","17:20:34",748.37,47.10,41,-1.40,-0.20,-0.31,-0.37
"2019.01.30","17:20:45",748.39,47.20,41,-1.40,-0.20,-0.25,-0.25
"2019.01.30","17:20:55",748.34,47.20,40,-1.40,-0.20,-0.25,-0.50
"2019.01.30","17:21:05",748.33,47.20,40,-1.40,-0.20,-0.25,-0.44
"2019.01.30","17:21:16",748.29,47.30,40,-1.40,-0.20,-0.37,-0.44
"2019.01.30","17:21:26",748.32,47.40,39,-1.40,-0.20,-0.25,-0.37
"2019.01.30","17:21:37",748.33,47.50,39,-1.40,-0.20,-0.25,-0.37
"2019.01.30","17:21:47",748.33,47.50,39,-1.50,-0.20,-0.37,-0.37
"2019.01.30","17:21:58",748.33,47.60,39,-1.40,-0.20,-0.44,-0.44
"2019.01.30","17:22:08",748.37,47.50,39,-1.40,-0.20,-0.25,-0.25
"2019.01.30","17:22:18",748.33,47.60,38,-1.40,-0.20,-0.25,-0.50
"2019.01.30","17:22:29",748.33,47.60,38,-1.40,-0.20,-0.56,-0.37
"2019.01.30","17:22:39",748.34,47.60,38,-1.30,-0.20,-0.25,-0.50
"2019.01.30","17:22:50",748.30,47.70,37,-1.30,-0.20,-0.19,-0.56
"2019.01.30","17:23:00",748.34,47.70,37,-1.30,-0.20,-0.37,-0.44
"2019.01.30","17:23:10",748.27,47.70,37,-1.30,-0.20,-0.44,-0.44
"2019.01.30","17:23:21",748.31,47.70,37,-1.40,-0.20,-0.69,-0.44
"2019.01.30","17:23:31",748.31,47.60,37,-1.40,-0.20,-0.44,-0.50
"2019.01.30","17:23:42",748.39,47.60,36,-1.50,-0.30,-0.63,-0.75
"2019.01.30","17:23:52",748.31,47.60,36,-1.40,-0.30,-0.69,-0.75
"2019.01.30","17:24:03",748.35,47.60,36,-1.50,-0.30,-0.69,-0.56
"2019.01.30","17:24:13",748.33,47.70,36,-1.50,-0.30,-0.75,-0.75
"2019.01.30","17:24:23",748.31,47.80,35,-1.50,-0.30,-0.63,-0.63
"2019.01.30","17:24:34",748.41,47.80,35,-1.40,-0.30,-0.56,-0.56
"2019.01.30","17:24:44",748.33,47.80,35,-1.40,-0.30,-0.56,-0.69
"2019.01.30","17:24:55",748.36,47.90,35,-1.40,-0.30,-0.50,-0.50
"2019.01.30","17:25:05",748.27,47.90,35,-1.40,-0.30,-0.56,-0.75
"2019.01.30","17:25:15",748.39,48.00,34,-1.40,-0.30,-0.44,-0.44
"2019.01.30","17:25:26",748.35,47.90,34,-1.40,-0.30,-0.44,-0.50
"2019.01.30","17:25:36",748.31,48.00,34,-1.30,-0.30,-0.44,-0.63
"2019.01.30","17:25:47",748.42,48.10,34,-1.30,-0.20,-0.44,-0.37
"2019.01.30","17:25:57",748.37,48.10,33,-1.30,-0.20,-0.37,-0.50
"2019.01.30","17:26:08",748.34,48.10,33,-1.40,-0.20,-0.31,-0.50
"2019.01.30","17:26:18",748.42,48.10,33,-1.50,-0.20,-0.37,-0.44
"2019.01.30","17:26:28",748.35,48.10,33,-1.40,-0.20,-0.37,-0.44
"2019.01.30","17:26:39",748.39,48.00,32,-1.50,-0.30,-0.44,-0.75
"2019.01.30","17:26:49",748.37,48.10,32,-1.60,-0.30,-0.56,-0.63
"2019.01.30","17:27:00",748.31,48.10,32,-1.60,-0.30,-0.50,-0.63
"2019.01.30","17:27:10",748.34,48.10,32,-1.50,-0.30,-0.44,-0.69
"2019.01.30","17:27:20",748.39,48.20,32,-1.40,-0.30,-0.63,-0.81
"2019.01.30","17:27:31",748.36,48.30,31,-1.40,-0.30,-0.63,-0.56
"2019.01.30","17:27:41",748.44,48.30,31,-1.40,-0.30,-0.44,-0.69
"2019.01.30","17:27:52",748.42,48.30,31,-1.30,-0.30,-0.44,-0.69
"2019.01.30","17:28:02",748.33,48.30,31,-1.30,-0.30,-0.56,-0.50
"2019.01.30","17:28:12",748.35,48.30,31,-1.30,-0.30,-0.44,-0.44
"2019.01.30","17:28:23",748.36,48.30,44,-1.30,-0.30,-0.37,-0.44
"2019.01.30","17:28:33",748.43,48.20,31,-1.30,-0.30,-0.44,-0.50
"2019.01.30","17:28:44",748.39,48.20,30,-1.30,-0.30,-0.37,-0.69
"2019.01.30","17:28:54",748.38,48.50,14,-0.30,-0.20,0.12,-0.19
"2019.01.30","17:29:05",748.27,49.60,14,1.10,0.30,1.00,0.94
"2019.01.30","17:29:15",748.39,51.30,13,2.60,1.00,2.56,2.50
"2019.01.30","17:29:25",748.31,52.80,11,4.00,1.80,3.50,3.56
"2019.01.30","17:29:36",748.27,53.90,10,5.10,2.60,4.50,4.75
"2019.01.30","17:29:46",748.27,54.50,10,6.10,3.30,5.38,5.69
"2019.01.30","17:29:56",748.24,54.60,10,7.20,4.00,6.06,6.75
"2019.01.30","17:30:07",748.21,54.30,10,8.30,4.70,7.00,7.56
"2019.01.30","17:30:17",748.27,53.70,10,9.30,5.40,7.88,8.25
"2019.01.30","17:30:27",748.22,52.90,9,10.10,6.10,8.81,8.88
"2019.01.30","17:30:38",748.26,51.70,9,10.80,6.60,9.44,9.50
"2019.01.30","17:30:48",748.24,50.60,9,11.50,7.20,10.06,10.13
"2019.01.30","17:30:58",748.17,49.50,9,12.10,7.70,10.63,10.44
"2019.01.30","17:31:09",748.21,48.40,9,12.70,8.30,11.25,11.13
"2019.01.30","17:31:19",748.17,47.10,9,13.30,8.70,11.75,11.38
"2019.01.30","17:31:30",748.18,45.90,9,13.80,9.30,12.25,12.06
"2019.01.30","17:31:40",748.15,44.60,9,14.30,9.70,12.69,12.25
"2019.01.30","17:31:50",748.19,42.60,9,14.70,10.10,13.06,12.81
"2019.01.30","17:32:01",748.06,41.30,9,15.10,10.60,13.44,13.19